Regional Weather Roundup
Issued by NWS Sioux Falls, SD

Home | Current Version | Previous Version | Graphics & Text | Print | Product List | Glossary On
Versions: 1 2 3 4 5 6 7 8 9 10 11 12 13 14 15 16 17 18 19 20 21 22 23 24 25 26 27 28 29 30 31 32 33 34 35 36 37 38 39 40 41 42 43 44 45 46 47 48 49 50
000
ASUS43 KFSD 060002
RWRFSD

WEATHER ROUNDUP FOR SE SOUTH DAKOTA/SW MINNESOTA/NW IOWA
NATIONAL WEATHER SERVICE SIOUX FALLS SD
600 PM CST MON DEC 05 2016

NOTE: "FAIR" INDICATES FEW OR NO CLOUDS BELOW 12,000 FEET WITH NO
SIGNIFICANT WEATHER AND OR OBSTRUCTIONS TO VISIBILITY.


SDZ038>040-050-052>070-060100-
SOUTHEAST SOUTH DAKOTA

CITY           SKY/WX    TMP DP  RH WIND       PRES   REMARKS
CHAMBERLAIN    NOT AVBL
HURON          CLOUDY    31  25  78 NW24G37   29.65R WCI  17
6HR MIN TEMP:  31; 6HR MAX TEMP:  44;

MADISON        MOCLDY    32  32 100 W20G31    29.59R WCI  20
MITCHELL       CLOUDY    33  26  75 W24G33    29.70R WCI  20
6HR MIN TEMP:  33; 6HR MAX TEMP:  49;

SIOUX FALLS    MOCLDY    36  30  79 W15G28    29.63R
6HR MIN TEMP:  36; 6HR MAX TEMP:  45;

WINNER         MOCLDY    27  20  75 NW29G38   29.78R WCI  11
YANKTON        CLOUDY   N/A N/A N/A W16G31    29.70R
$$

MNZ071-072-080-081-089-090-097-098-060100-
SOUTHWEST MINNESOTA

CITY           SKY/WX    TMP DP  RH WIND       PRES   REMARKS
FAIRMONT       CLOUDY    42  37  82 S18       29.63R
JACKSON        PTCLDY    41  32  70 S18G28    29.61R
LUVERNE        MOCLDY    36  30  80 W17G24    29.62R
MARSHALL       PTCLDY    42  34  73 SW18G30   29.53
6HR MIN TEMP:  37; 6HR MAX TEMP:  43;

MONTEVIDEO     PTCLDY    37  34  87 SW9       29.52S
PIPESTONE      MOCLDY    37  32  81 W15G21    29.58R
REDWOOD FALLS  MOCLDY    42  34  73 S17       29.55F
TRACY          CLOUDY    42  36  79 SW23G29   29.55R
WINDOM         PTCLDY    43  36  75 S13G22    29.58R
WORTHINGTON    PTCLDY    40  35  83 SW23      29.58R
$$

IAZ001>003-012>014-020>022-031-032-NEZ013-014-SDZ071-060100-
NORTHWEST IOWA

CITY           SKY/WX    TMP DP  RH WIND       PRES   REMARKS
CHEROKEE       MOCLDY    42  37  83 SW8       29.65R
DENISON        CLOUDY    45  37  76 S13G20    29.65R
ESTHERVILLE    PTCLDY    42  36  79 S18       29.62R
LE MARS        MOCLDY    43  36  75 SW13      29.66R
ORANGE CITY    CLOUDY    41  37  87 SW14      29.64R
SHELDON        MOCLDY    41  37  87 SW12      29.61R
SIOUX CITY     CLOUDY    44  37  76 W7        29.68R
6HR MIN TEMP:  44; 6HR MAX TEMP:  48;

SPENCER        PTCLDY    42  36  79 S22       29.63S
6HR MIN TEMP:  42; 6HR MAX TEMP:  47;

STORM LAKE     CLOUDY    43  37  81 S14       29.65R
$$

ABBREVIATIONS USED IN REMARKS
   TC - TEMPERATURE IN CELSIUS
  WCI - WIND CHILL INDEX
   HX - HEAT INDEX
  VSB - VISIBILITY





USA.gov is the U.S. government's official web portal to all federal, state and local government web resources and services.